SB KEPS @ AMSAT $ORB09022.N 2Line Orbital Elements 09022.AMSAT
HR AMSAT ORBITAL ELEMENTS FOR AMATEUR SATELLITES IN NASA FORMAT FROM WA5QGD FORT WORTH,TX January 22, 2009 Send Subscribe/unsubscribe to KEPS at http://www.amsat.org/mailman/listinfo/keps BID: ORB09022.N
DECODE 2-LINE ELSETS WITH THE FOLLOWING KEY: 1 AAAAAU 00 0 0 BBBBB.BBBBBBBB .CCCCCCCC 00000-0 00000-0 0 DDDZ 2 AAAAA EEE.EEEE FFF.FFFF GGGGGGG HHH.HHHH III.IIII JJ.JJJJJJJJKKKKKZ KEY: A-CATALOGNUM B-EPOCHTIME C-DECAY D-ELSETNUM E-INCLINATION F-RAAN G-ECCENTRICITY H-ARGPERIGEE I-MNANOM J-MNMOTION K-ORBITNUM Z-CHECKSUM
TO ALL RADIO AMATEURS BT
AO-07 1 07530U 74089B 09022.68149561 -.00000027 00000-0 10000-3 0 3848 2 07530 101.4430 052.6214 0011800 193.1742 166.9014 12.53575091564489 AO-10 1 14129U 83058B 09021.61221901 .00000016 00000-0 10000-3 0 06139 2 14129 026.0162 175.2177 5966110 191.6952 143.6537 02.05868760192606 UO-11 1 14781U 84021B 09021.81278796 .00000069 00000-0 16414-4 0 08686 2 14781 098.1294 064.7908 0010213 089.5480 270.6938 14.79690161336181 RS-15 1 23439U 94085A 09021.81607228 -.00000039 00000-0 10000-3 0 02094 2 23439 064.8138 141.5096 0145947 080.1206 281.6159 11.27553551579611 FO-29 1 24278U 96046B 09021.79935838 -.00000026 00000-0 10236-4 0 09807 2 24278 098.5758 275.3389 0350853 009.7114 351.0579 13.52941739613958 SO-33 1 25509U 98061B 09022.74027532 .00000343 00000-0 56075-4 0 3731 2 25509 031.4291 154.9195 0354319 146.8763 215.4561 14.28237758535023 AO-40 1 26609U 00072B 09022.34456309 -.00000021 00000-0 10000-3 0 1821 2 26609 008.5706 036.7997 7943798 168.0091 239.4707 01.25583688 37798 VO-52 1 28650U 05017B 09021.83109999 .00000388 00000-0 55677-4 0 01360 2 28650 097.7637 088.1162 0027877 145.6309 214.6688 14.81547191200971 PO-63 1 29712U 07001D 09022.77391762 .00000478 00000-0 69217-4 0 1703 2 29712 097.8494 082.5337 0014861 031.5549 328.6546 14.80419176109958 AO-16 1 20439U 90005D 09022.71076596 .00000030 00000-0 26738-4 0 5164 2 20439 098.2595 357.8814 0010019 241.8111 118.2071 14.31814399992332 LO-19 1 20442U 90005G 09021.81345493 -.00000040 00000-0 48584-6 0 04417 2 20442 098.2248 004.8401 0010996 241.9986 118.0082 14.32050859992364 AO-27 1 22825U 93061C 09021.83249860 .00000014 00000-0 22101-4 0 01593 2 22825 098.4168 340.0165 0008088 342.1473 017.9442 14.29257017799004 IO-26 1 22826U 93061D 09022.82831570 .00000010 00000-0 20299-4 0 8778 2 22826 098.4099 341.7910 0008720 334.8428 025.2336 14.29507697799247 GO-32 1 25397U 98043D 09021.83512478 .00000038 00000-0 34749-4 0 08047 2 25397 098.3426 051.9162 0000990 010.5083 349.6112 14.23153971547311 NO-44 1 26931U 01043C 09021.64230249 -.00000179 00000-0 -37638-4 0 00813 2 26931 067.0516 081.8808 0005727 260.8232 099.2209 14.29544892381635 SO-50 1 27607U 02058C 09021.79148121 -.00000016 00000-0 19661-4 0 07962 2 27607 064.5581 109.7168 0080878 236.9116 122.4231 14.71410185327137 CO-55 1 27844U 03031E 09021.49568545 .00000010 00000-0 24940-4 0 04944 2 27844 098.7155 032.7205 0009415 203.3621 156.7134 14.20618200288433 CO-57 1 27848U 03031J 09021.52335094 .00000013 00000-0 26689-4 0 04410 2 27848 098.7168 031.8141 0009175 209.0030 151.0635 14.20423380288404 AO-51 1 28375U 04025K 09021.55457078 .00000001 00000-0 12885-4 0 2979 2 28375 098.0568 039.6726 0082932 210.1396 149.5009 14.40630894239845 CO-56 1 28941U 06005C 09022.70205890 .00023493 27777-5 12948-3 0 7484 2 28941 098.1243 171.8222 0124173 316.7343 042.4246 15.69841894164324 CP3 1 31128U 07012M 09022.68266937 -.00000047 00000-0 00000 0 0 5374 2 31128 098.0130 082.5035 0103364 016.6316 343.8233 14.52011654 93783 CP4 1 31132U 07012Q 09022.71858593 -.00000057 00000-0 -20261-5 0 5164 2 31132 098.0168 085.8022 0086103 007.0357 353.2024 14.55177024 93871 CO-65 1 32785U 08021C 09021.89691699 .00000163 00000-0 27622-4 0 2700 2 32785 097.9665 086.9371 0015627 143.2182 217.0092 14.81441298 39785 NOAA-10 1 16969U 86073A 09021.79240997 .00000052 00000-0 39484-4 0 04695 2 16969 098.7074 049.1348 0011509 263.2466 096.7382 14.27378442162626 NOAA-11 1 19531U 88089A 09021.82456240 -.00000202 00000-0 -81958-4 0 04856 2 19531 098.7886 114.0308 0011577 162.0609 198.0972 14.14885614048829 NOAA-12 1 21263U 91032A 09021.97817405 .00000020 00000-0 27316-4 0 09986 2 21263 098.7724 029.9687 0011831 207.7142 152.3415 14.25563640919568 MET-3/5 1 21655U 91056A 09021.90864912 .00000051 00000-0 10000-3 0 06055 2 21655 082.5527 309.8472 0012840 182.5691 177.5367 13.17017901838375 MET-2/21 1 22782U 93055A 09022.32167056 .00000032 00000-0 15380-4 0 3581 2 22782 082.5488 297.7269 0023563 038.7374 321.5466 13.83634764777431 OKEAN-4 1 23317U 94066A 09021.78827687 .00000026 00000-0 22312-6 0 08089 2 23317 082.5398 111.1117 0023538 124.3689 235.9757 14.82668647770677 NOAA-14 1 23455U 94089A 09021.88339275 -.00000056 00000-0 -59743-5 0 04863 2 23455 098.9244 100.0017 0008777 242.4240 117.6018 14.13756474725250 NOAA-15 1 25338U 98030A 09021.90955664 .00000048 00000-0 38804-4 0 07848 2 25338 098.5741 014.4116 0011444 121.8532 238.3756 14.24742693555944 RESURS 1 25394U 98043A 09021.67654882 -.00000019 00000-0 98131-5 0 01399 2 25394 098.3596 061.3475 0000983 317.6998 042.4106 14.24179213547540 FENGYUN1 1 25730U 99025A 09022.88287167 .00000065 00000-0 63397-4 0 6688 2 25730 098.7435 357.4834 0022029 269.0624 090.8021 14.07920503499871 OKEAN-0 1 25860U 99039A 09021.49925975 .00000027 00000-0 11411-4 0 05811 2 25860 097.7712 008.6368 0000769 039.8036 320.3217 14.73554870511546 NOAA-16 1 26536U 00055A 09021.94765215 -.00000148 00000-0 -54832-4 0 02605 2 26536 099.1736 022.1027 0010224 335.7948 024.2715 14.12508099429657 NOAA-17 1 27453U 02032A 09021.92564793 .00000078 00000-0 52316-4 0 02736 2 27453 098.5071 085.8999 0011702 185.9749 174.1289 14.24034806341939 NOAA-18 1 28654U 05018A 09021.92482227 -.00000133 00000-0 -49464-4 0 07580 2 28654 098.8923 326.4141 0015158 057.6048 302.6598 14.11226034189327 HUBBLE 1 20580U 90037B 09022.18601970 .00000310 00000-0 11118-4 0 3106 2 20580 028.4706 334.7858 0003769 187.4040 172.6493 15.00448878827904 PO-34 1 25520U 98064B 09022.69719188 .00000359 00000-0 78947-5 0 1699 2 25520 028.4596 149.0846 0005800 160.0295 200.0525 15.17287130566532 ISS 1 25544U 98067A 09021.90854292 .00011432 00000-0 95712-4 0 01172 2 25544 051.6436 335.7578 0007718 292.9948 166.3593 15.70502208582942 CO-58 1 28895U 05043F 09022.67916017 .00000103 00000-0 31119-4 0 2147 2 28895 098.0803 277.2194 0019116 084.3632 275.9733 14.59735353172504 FALCON 1 30776U 07006E 09021.91161310 .00000326 00000-0 26713-4 0 04966 2 30776 035.4344 266.8302 0000359 009.0824 350.9899 15.03152552103078 MAST 1 31126U 07012K 09022.71155682 -.00000087 00000-0 -90146-5 0 5102 2 31126 098.0110 084.0327 0095197 011.9697 348.3715 14.53472573 93905 CAPE1 1 31130U 07012P 09021.64142105 .00000071 00000-0 27097-4 0 05109 2 31130 098.0133 081.5213 0103484 019.6513 340.8618 14.52027282093420 COMPASS 1 32787U 08021E 09021.81691518 .00000387 00000-0 56075-4 0 02672 2 32787 097.9635 086.7510 0016529 144.6613 215.5691 14.81536573039771 AAUSAT2 1 32788U 08021F 09022.67465421 .00000248 00000-0 38299-4 0 2618 2 32788 097.9618 087.6379 0015857 142.7618 217.4694 14.81654031 39902 DO-64 1 32789U 08021G 09021.94975661 .00000554 00000-0 77198-4 0 02767 2 32789 097.9673 087.0006 0016323 144.0132 216.2183 14.81595663039792 CO-66 1 32791U 08021J 09021.91107040 -.00000038 00000-0 20186-5 0 02545 2 32791 097.9660 086.8723 0016696 142.6069 217.6311 14.81376666039754 RS-30 1 32953U 08025A 09022.42291743 .00000010 00000-0 00000 0 0 2131 2 32953 082.5037 347.2528 0019633 133.1822 227.0907 12.42999448 30284 /EX
participants (1)
-
Ray Hoad